Tracking 27086 objects as of 22-Mar-2023
HD Live streaming from Space Station
objects crossing your sky now

STARLINK-3840

Track STARLINK-3840 now!
10-day predictions
STARLINK-3840 is classified as:


NORAD ID: 52466
Int'l Code: 2022-049R
Perigee: 545.3 km
Apogee: 547.0 km
Inclination: 53.2 °
Period: 95.4 minutes
Semi major axis: 6917 km
RCS: Unknown
Launch date: May 6, 2022
Source: United States (US)
Launch site: AIR FORCE EASTERN TEST RANGE (AFETR)
Your satellite tracking list
Your tracking list is empty




NASA's NSSDC Master Catalog

Two Line Element Set (TLE):
1 52466U 22049R   23081.17059540  .00029884  00000-0  18757-2 0  9996
2 52466  53.2142 243.2068 0001232  68.7880 291.3244 15.09075451 48837
Source of the keplerian elements: AFSPC